Regional Weather Roundup
Issued by NWS

Home | Current Version | Previous Version | Graphics & Text | Print | Product List | Glossary On
Versions: 1 2 3 4 5 6 7 8 9 10 11 12 13 14 15 16 17 18 19 20 21 22 23 24 25 26 27 28 29 30 31 32 33 34 35 36 37 38 39 40 41 42 43 44 45 46 47 48 49 50
000
ASUS43 KLOT 230500
RWRIL

ILLINOIS REGIONAL WEATHER ROUNDUP
NATIONAL WEATHER SERVICE CHICAGO/ROMEOVILLE IL
1200 AM CDT SAT AUG 23 2014

NOTE: "FAIR" INDICATES FEW OR NO CLOUDS BELOW 12,000 FEET WITH NO
SIGNIFICANT WEATHER AND/OR OBSTRUCTIONS TO VISIBILITY.

* THESE STATIONS ARE NOT UNDER NWS QUALITY CONTROL. THEY ALSO MAY NOT
  REPORT WEATHER SUCH AS PRECIPITATION OR FOG.

ILZ001-002-007-009-015-016-024-230600-
NORTHWEST ILLINOIS

CITY           SKY/WX    TMP DP  RH WIND       PRES   REMARKS
MOLINE         CLEAR     74  72  93 CALM      29.94F
STERLING*      MOCLDY    73  72  94 CALM      29.97R
$$

ILZ003-004-008-010-011-017-018-230600-
NORTH CENTRAL ILLINOIS

CITY           SKY/WX    TMP DP  RH WIND       PRES   REMARKS
ROCKFORD       CLOUDY    75  72  90 S5        29.98F
ROCHELLE*      MOCLDY    72  71  95 CALM      29.98F
$$

ILZ005-006-012>014-019>023-230600-
NORTHEAST ILLINOIS

CITY           SKY/WX    TMP DP  RH WIND       PRES   REMARKS
CHICAGO-OHARE  PTCLDY    77  70  79 CALM      29.98F
CHICAGO-MIDWAY PTCLDY    79  74  84 CALM      29.98F HX  82
AURORA         CLOUDY    75  72  90 S3        29.98F
WAUKEGAN       MOCLDY    73  71  93 NE6       29.98F FOG
DUPAGE AIRPORT CLEAR     75  73  93 SE5       29.98F
WHEELING       PTCLDY    76  72  87 CALM      29.99F
NORTHERLY ISL    N/A     74  71  91 NE1         N/A
$$

LMZ740>746-230600-
SOUTHERN LAKE MICHIGAN

STATION/POSITION SKY/WX   TEMP    WIND        PRES    VSBY  WAVE
                          AIR SEA DIR/SP/G                  HT/PER
                          (F)     (DEG/KT/KT) (MB)    (MI)  (FT/S)
SOUTHERN BUOY              69 70   40/  8/  8 1015.9R         0
WAUKEGAN HARBOR            73      40/  5/  6   N/A
HARRISON CRIB              75     150/  3/  4   N/A
BURNHAM HARBOR             74      10/  2/  3   N/A
CALUMET HARBOR             77     220/  2/  3 1014.3F
MICHIGAN CITY              75      80/  2/  3   N/A
MICHIGAN CITY 6N           74 73   60/  4/  6   N/A           0
ST. JOSEPH                 75 73   40/  2/  4   N/A           0
$$

ILZ025>027-034>036-040-047-049-050-058-095>099-230600-
WEST-CENTRAL ILLINOIS

CITY           SKY/WX    TMP DP  RH WIND       PRES   REMARKS
QUINCY         PTCLDY    79  76  90 E7        29.95S HX  83
MACOMB*        MOCLDY    75  75 100 CALM      29.98R FOG
$$

ILZ028>032-037-038-041>044-048-051>054-059>061-230600-
CENTRAL ILLINOIS

CITY           SKY/WX    TMP DP  RH WIND       PRES   REMARKS
DECATUR        PTCLDY    76  74  93 SE5       29.98F
PEORIA         CLEAR     79  74  84 E3        29.97F HX  82
SPRINGFIELD    PTCLDY    78  76  93 CALM      29.96F HX  81
TAYLORVILLE    NOT AVBL
$$

ILZ033-039-045-046-055>057-062-063-230600-
EAST-CENTRAL ILLINOIS

CITY           SKY/WX    TMP DP  RH WIND       PRES   REMARKS
CHAMPAIGN      MOCLDY    75  72  90 E5        29.99F
MATTOON        PTCLDY    77  76  96 S5        29.98S FOG
$$

ILZ079-100>102-230600-
SOUTHWEST ILLINOIS

CITY           SKY/WX    TMP DP  RH WIND       PRES   REMARKS
BELLEVILLE     PTCLDY    78  78 100 CALM      29.93F HX  81
CAHOKIA*       PTCLDY    80  77  90 S3        29.93F HX  87
$$

ILZ064>066-069>071-074>076-080>082-084>086-088>090-092>094-230600-
SOUTH-CENTRAL ILLINOIS

CITY           SKY/WX    TMP DP  RH WIND       PRES   REMARKS
CARBONDALE     PTCLDY    79  75  87 S6        29.96F HX  83
MT. VERNON     CLEAR     77  73  88 NE3       29.97S
SALEM*         CLEAR     82  79  91 E5        29.97F HX  91
$$

ILZ067-068-072-073-078-083-087-091-230600-
SOUTHEAST ILLINOIS

CITY           SKY/WX    TMP DP  RH WIND       PRES   REMARKS
LAWRENCEVILLE  PTCLDY    77  76  96 E5        30.00S FOG
HARRISBURG*    PTCLDY    77  77 100 CALM      29.98S
ROBINSON*      FOG       77  76  98 CALM      29.99F VSB 1/4
$$

ABBREVIATIONS USED IN REMARKS
   TC - TEMPERATURE IN CELSIUS
  WCI - WIND CHILL INDEX
   HX - HEAT INDEX
  VSB - VISIBILITY
$$




USA.gov is the U.S. government's official web portal to all federal, state and local government web resources and services.